• In Germany
  • List of Countries
  • For 7 days
  • Water Temperature
  • Satellite Maps
  • Weather Map
  • Weather Widgets
  • user-avatar
    Login

    Hourly Weather Oruro

    Today, 21 August, Monday

    Time Temperature Precipitation Wind Pressure Humidity
    00:00 +3°C° 0 mm 3 mps 475 mmHg 67%
    01:00 +2°C° 0 mm 3 mps 474 mmHg 68%
    02:00 +1°C° 0 mm 3 mps 474 mmHg 70%
    03:00 +1°C° 0 mm 3 mps 474 mmHg 71%
    04:00 0°C° 0 mm 3 mps 473 mmHg 71%
    05:00 0°C° 0 mm 3 mps 473 mmHg 72%
    06:00 +1°C° 0 mm 3 mps 474 mmHg 68%
    07:00 +1°C° 0 mm 3 mps 475 mmHg 64%
    08:00 +2°C° 0 mm 3 mps 475 mmHg 60%
    09:00 +5°C° 0 mm 4 mps 477 mmHg 47%
    10:00 +7°C° 0 mm 4 mps 478 mmHg 34%
    11:00 +10°C° 0 mm 5 mps 480 mmHg 22%
    12:00 +12°C° 0 mm 4 mps 480 mmHg 18%
    13:00 +13°C° 0 mm 4 mps 480 mmHg 15%
    14:00 +14°C° 0 mm 3 mps 480 mmHg 11%
    15:00 +14°C° 0 mm 3 mps 480 mmHg 11%
    16:00 +14°C° 0 mm 3 mps 480 mmHg 12%
    17:00 +14°C° 0 mm 3 mps 479 mmHg 12%
    18:00 +12°C° 0 mm 3 mps 478 mmHg 19%
    19:00 +10°C° 0 mm 3 mps 477 mmHg 27%
    20:00 +8°C° 0 mm 3 mps 476 mmHg 35%
    21:00 +7°C° 0 mm 3 mps 476 mmHg 43%
    22:00 +5°C° 0 mm 3 mps 476 mmHg 52%
    23:00 +4°C° 0 mm 3 mps 476 mmHg 61%

    Tomorrow, 22 August, Tuesday

    Time Temperature Precipitation Wind Pressure Humidity
    00:00 +3°C° 0 mm 3 mps 475 mmHg 63%
    01:00 +4°C° 0 mm 2 mps 475 mmHg 65%
    02:00 +3°C° 0 mm 2 mps 474 mmHg 67%
    03:00 +3°C° 0 mm 2 mps 474 mmHg 66%
    04:00 +2°C° 0 mm 2 mps 473 mmHg 65%
    05:00 +2°C° 0 mm 2 mps 473 mmHg 65%
    06:00 +3°C° 0 mm 2 mps 474 mmHg 59%
    07:00 +3°C° 0 mm 2 mps 474 mmHg 53%
    08:00 +4°C° 0 mm 2 mps 475 mmHg 47%
    09:00 +6°C° 0 mm 2 mps 476 mmHg 37%
    10:00 +9°C° 0 mm 2 mps 478 mmHg 26%
    11:00 +12°C° 0 mm 2 mps 479 mmHg 16%
    12:00 +12°C° 0 mm 3 mps 479 mmHg 13%
    13:00 +13°C° 0 mm 3 mps 479 mmHg 11%
    14:00 +14°C° 0 mm 3 mps 479 mmHg 8%
    15:00 +14°C° 0 mm 3 mps 478 mmHg 8%
    16:00 +14°C° 0 mm 3 mps 478 mmHg 9%
    17:00 +14°C° 0 mm 3 mps 478 mmHg 9%
    18:00 +13°C° 0 mm 2 mps 477 mmHg 15%
    19:00 +10°C° 0 mm 2 mps 476 mmHg 21%
    20:00 +7°C° 0 mm 2 mps 474 mmHg 28%
    21:00 +7°C° 0 mm 2 mps 475 mmHg 35%
    22:00 +6°C° 0 mm 2 mps 475 mmHg 42%
    23:00 +6°C° 0 mm 2 mps 475 mmHg 49%

    Day after tomorrow, 23 August, Wednesday

    Time Temperature Precipitation Wind Pressure Humidity
    00:00 +5°C° 0 mm 2 mps 474 mmHg 54%
    01:00 +5°C° 0 mm 2 mps 474 mmHg 59%
    02:00 +4°C° 0 mm 2 mps 473 mmHg 63%
    03:00 +3°C° 0 mm 2 mps 472 mmHg 64%
    04:00 +3°C° 0 mm 2 mps 472 mmHg 64%
    05:00 +2°C° 0 mm 2 mps 471 mmHg 64%
    06:00 +3°C° 0 mm 2 mps 472 mmHg 58%
    07:00 +4°C° 0 mm 2 mps 473 mmHg 51%
    08:00 +5°C° 0 mm 2 mps 474 mmHg 45%
    09:00 +7°C° 0 mm 2 mps 475 mmHg 36%
    10:00 +9°C° 0 mm 2 mps 477 mmHg 26%
    11:00 +12°C° 0 mm 2 mps 478 mmHg 17%
    12:00 +12°C° 0 mm 3 mps 478 mmHg 15%
    13:00 +14°C° 0 mm 3 mps 478 mmHg 13%
    14:00 +16°C° 0 mm 3 mps 478 mmHg 11%
    15:00 +16°C° 0 mm 3 mps 477 mmHg 12%
    16:00 +16°C° 0 mm 3 mps 477 mmHg 13%
    17:00 +14°C° 0 mm 3 mps 477 mmHg 14%
    18:00 +13°C° 0 mm 3 mps 476 mmHg 22%
    19:00 +11°C° 0 mm 3 mps 475 mmHg 30%
    20:00 +9°C° 0 mm 3 mps 474 mmHg 38%
    21:00 +8°C° 0 mm 3 mps 474 mmHg 47%
    22:00 +7°C° 0 mm 3 mps 474 mmHg 55%
    23:00 +5°C° 0 mm 3 mps 474 mmHg 64%

    24 August, Thursday

    Time Temperature Precipitation Wind Pressure Humidity
    00:00 +5°C° 0 mm 3 mps 473 mmHg 67%
    01:00 +4°C° 0 mm 3 mps 473 mmHg 69%
    02:00 +3°C° 0 mm 3 mps 473 mmHg 72%
    03:00 +3°C° 0 mm 3 mps 472 mmHg 73%
    04:00 +2°C° 0 mm 3 mps 472 mmHg 74%
    05:00 +3°C° 0 mm 2 mps 472 mmHg 75%
    06:00 +3°C° 0 mm 3 mps 473 mmHg 71%
    07:00 +3°C° 0 mm 3 mps 473 mmHg 67%
    08:00 +4°C° 0 mm 4 mps 474 mmHg 63%
    09:00 +6°C° 0 mm 4 mps 476 mmHg 53%
    10:00 +8°C° 0 mm 5 mps 477 mmHg 43%
    11:00 +10°C° 0 mm 5 mps 478 mmHg 33%
    12:00 +12°C° 0 mm 5 mps 478 mmHg 29%
    13:00 +13°C° 0 mm 6 mps 478 mmHg 25%
    14:00 +14°C° 0 mm 6 mps 478 mmHg 21%
    15:00 +14°C° 0 mm 6 mps 477 mmHg 23%
    16:00 +14°C° 0 mm 6 mps 477 mmHg 25%
    17:00 +13°C° 0 mm 6 mps 476 mmHg 27%
    18:00 +10°C° 0 mm 6 mps 476 mmHg 35%
    19:00 +9°C° 0 mm 5 mps 475 mmHg 44%
    20:00 +7°C° 0 mm 5 mps 474 mmHg 52%
    21:00 +6°C° 0 mm 4 mps 474 mmHg 56%
    22:00 +6°C° 0 mm 4 mps 474 mmHg 60%
    23:00 +5°C° 0 mm 3 mps 474 mmHg 63%

    25 August, Friday

    Time Temperature Precipitation Wind Pressure Humidity
    00:00 +4°C° 0 mm 3 mps 474 mmHg 67%
    01:00 +4°C° 0 mm 3 mps 473 mmHg 70%
    02:00 +3°C° 0 mm 3 mps 473 mmHg 73%
    03:00 +3°C° 0 mm 3 mps 473 mmHg 76%
    04:00 +2°C° 0 mm 3 mps 473 mmHg 79%
    05:00 +2°C° 0 mm 3 mps 472 mmHg 81%
    06:00 +3°C° 0 mm 3 mps 473 mmHg 77%
    07:00 +3°C° 0 mm 3 mps 474 mmHg 72%
    08:00 +4°C° 0 mm 4 mps 475 mmHg 67%
    09:00 +6°C° 0 mm 4 mps 476 mmHg 54%
    10:00 +8°C° 0 mm 4 mps 477 mmHg 40%
    11:00 +12°C° 0 mm 5 mps 478 mmHg 26%
    12:00 +13°C° 0 mm 5 mps 478 mmHg 23%
    13:00 +14°C° 0 mm 5 mps 478 mmHg 20%
    14:00 +15°C° 0 mm 5 mps 478 mmHg 17%
    15:00 +15°C° 0 mm 5 mps 478 mmHg 18%
    16:00 +15°C° 0 mm 5 mps 478 mmHg 18%
    17:00 +15°C° 0 mm 4 mps 478 mmHg 19%
    18:00 +13°C° 0 mm 4 mps 477 mmHg 26%
    19:00 +11°C° 0 mm 3 mps 476 mmHg 33%
    20:00 +9°C° 0 mm 3 mps 476 mmHg 40%
    21:00 +8°C° 0 mm 3 mps 475 mmHg 42%
    22:00 +8°C° 0 mm 3 mps 475 mmHg 44%
    23:00 +7°C° 0 mm 2 mps 475 mmHg 46%

    26 August, Saturday

    Time Temperature Precipitation Wind Pressure Humidity
    00:00 +6°C° 0 mm 2 mps 474 mmHg 47%
    01:00 +5°C° 0 mm 2 mps 474 mmHg 48%
    02:00 +5°C° 0 mm 1 mps 473 mmHg 49%
    03:00 +4°C° 0 mm 1 mps 472 mmHg 49%
    04:00 +4°C° 0 mm 1 mps 472 mmHg 50%
    05:00 +3°C° 0 mm 1 mps 472 mmHg 51%
    06:00 +4°C° 0 mm 1 mps 473 mmHg 48%
    07:00 +4°C° 0 mm 2 mps 474 mmHg 46%
    08:00 +6°C° 0 mm 2 mps 475 mmHg 43%
    09:00 +7°C° 0 mm 2 mps 476 mmHg 36%
    10:00 +9°C° 0 mm 3 mps 477 mmHg 28%
    11:00 +11°C° 0 mm 3 mps 478 mmHg 21%
    12:00 +12°C° 0 mm 3 mps 478 mmHg 19%
    13:00 +13°C° 0 mm 3 mps 478 mmHg 16%
    14:00 +15°C° 0 mm 4 mps 478 mmHg 14%
    15:00 +16°C° 0 mm 3 mps 478 mmHg 14%
    16:00 +16°C° 0 mm 3 mps 478 mmHg 14%
    17:00 +16°C° 0 mm 3 mps 478 mmHg 14%
    18:00 +13°C° 0 mm 3 mps 477 mmHg 21%
    19:00 +11°C° 0 mm 3 mps 476 mmHg 29%
    20:00 +9°C° 0 mm 3 mps 476 mmHg 36%
    21:00 +8°C° 0 mm 2 mps 475 mmHg 43%
    22:00 +7°C° 0 mm 2 mps 475 mmHg 49%
    23:00 +7°C° 0 mm 2 mps 475 mmHg 56%
    Show more